ROMMA est une association bénévole à but non lucratif. Votre soutien est indispensable : ADHERER à ROMMA ou FAIRE un DON

Voiron - (38, Isère)

Voironnais (300 m)   Longitude: 05° 35' E   Latitude: 45° 23' N Station partenaire n°109
 

Détail journalier du     <<     >>

Température Precipitation Humidité Pression Vent Dir Rafale Dir. rafale Ensol.
Heure (°C) (mm) (%) (hPa) (km/h) (km/h) (min)
01:00 11.60911024000
02:00 10.70931024000
03:00 10.409310241O6SSO0
04:00 10.209410241ONO6ONO0
05:00 10.409410242ONO8NO0
06:00 10.509210233S10N0
07:00 9.609310231S8SSE0
08:00 9.909310242OSO8NO0
09:00 12.308710243SSO11S60
10:00 14.707810242S6S60
11:00 15.007710242S10S0
12:00 17.407110231SSE6SSE30
13:00 18.606610222S8S60
14:00 19.406610224S13SSE60
15:00 20.006610212S10SSO60
16:00 19.806810211S6S60
17:00 19.7070102105O60
18:00 17.108010211NNE5NNE0
19:00 15.9085102103NNE0
20:00 15.408610222SSO8SSE0
21:00 15.408610222SE6NNO0
22:00 15.208710222SSE6SSE0
23:00 14.70891021000
minuit 15.108410211SE8NE0

Graphique du 27-10-2019

 

Serveur OMMA